This demonstration page uses our WeatherBlox Daily Observations layout. Learn more.

Hourly Observations for January 24, 2015

Temp ( °F °C ) Dew Point ( °F °C ) Humidity (%) Winds ( mph kmh ) Pressure ( in mb ) Visibility ( mi km ) Precip ( " mm )
12:15 am 00:15 Clear 34 1 27 -2.7 77 77 NW 12 19 30.18 1022 10 16.0934 0 0
12:35 am 00:35 Clear 34 1.2 28 -2.5 77 77 NW 10 17 30.18 1022 10 16.0934 0 0
12:55 am 00:55 Clear 34 1.2 27 -2.7 76 76 WNW 9 15 30.18 1022 10 16.0934 0 0
1:15 am 01:15 Clear 32 0 26 -3.2 79 79 WNW 8 13 30.18 1022 10 16.0934 0 0
1:35 am 01:35 Clear 32 0 26 -3.2 79 79 WNW 7 11 30.18 1022 10 16.0934 0 0
1:55 am 01:55 Clear 32 0 26 -3.3 79 79 WNW 8 13 30.18 1022 10 16.0934 0 0
2:15 am 02:15 Clear 31 -0.5 25 -3.8 79 79 WNW 7 11 30.18 1022 10 16.0934 0 0
2:35 am 02:35 Clear 31 -0.5 26 -3.5 80 80 WNW 7 11 30.18 1022 10 16.0934 0 0
2:55 am 02:55 Clear 31 -0.6 26 -3.5 81 81 W 10 17 30.18 1022 10 16.0934 0 0
3:15 am 03:15 Clear 31 -0.6 25 -3.7 80 80 W 7 11 30.15 1021 10 16.0934 0 0
3:35 am 03:35 Clear 30 -1 25 -4 80 80 W 8 13 30.15 1021 10 16.0934 0 0
3:55 am 03:55 Clear 29 -1.4 25 -4 83 83 W 7 11 30.15 1021 10 16.0934 0 0
4:15 am 04:15 Clear 28 -2 24 -4.2 85 85 W 7 11 30.15 1021 10 16.0934 0 0
4:35 am 04:35 Clear 28 -2 25 -4.1 86 86 W 8 13 30.15 1021 10 16.0934 0 0
4:55 am 04:55 Clear 29 -1.6 25 -4 84 84 W 12 19 30.15 1021 10 16.0934 0 0
5:15 am 05:15 Clear 30 -1.2 26 -3.6 84 84 W 12 19 30.15 1021 10 16.0934 0 0
5:35 am 05:35 Clear 30 -1.2 25 -3.7 83 83 W 10 17 30.12 1020 10 16.0934 0 0
5:55 am 05:55 Clear 30 -1.1 25 -3.8 82 82 W 13 20 30.12 1020 10 16.0934 0 0
6:15 am 06:15 Clear 30 -1.2 25 -3.8 83 83 W 13 20 30.12 1020 10 16.0934 0 0
6:35 am 06:35 Clear 30 -1.2 25 -4 82 82 W 13 20 30.12 1020 10 16.0934 0 0
6:55 am 06:55 Clear 30 -1.3 25 -4.1 81 81 W 12 19 30.12 1020 10 16.0934 0 0
7:15 am 07:15 Clear 30 -1.1 25 -4 81 81 W 13 20 30.09 1019 10 16.0934 0 0
7:35 am 07:35 Clear 30 -1 25 -4.1 80 80 W 14 22 30.12 1020 10 16.0934 0 0
7:55 am 07:55 Sunny 30 -1.1 24 -4.2 80 80 W 13 20 30.12 1020 10 16.0934 0 0
8:15 am 08:15 Sunny 31 -0.7 25 -4.1 78 78 W 14 22 30.09 1019 10 16.0934 0 0
8:35 am 08:35 Sunny 32 -0.1 25 -4 75 75 W 13 20 30.06 1018 10 16.0934 0 0
8:55 am 08:55 Sunny 32 0.2 26 -3.6 76 76 W 13 20 30.06 1018 10 16.0934 0 0
9:15 am 09:15 Sunny 33 0.6 26 -3.5 74 74 W 14 22 30.06 1018 10 16.0934 0 0
9:35 am 09:35 Sunny 36 2.1 27 -3 69 69 W 13 20 30.06 1018 10 16.0934 0 0
9:55 am 09:55 Sunny 39 4.1 28 -2.5 63 63 W 14 22 30 1016 10 16.0934 0 0
10:15 am 10:15 Sunny 40 4.5 27 -2.7 60 60 W 12 19 30 1016 10 16.0934 0 0
10:35 am 10:35 Sunny 41 5.1 27 -2.6 58 58 W 14 22 30 1016 10 16.0934 0 0
10:55 am 10:55 Sunny 42 5.5 27 -2.6 56 56 W 14 22 29.97 1015 10 16.0934 0 0
11:15 am 11:15 Sunny 43 6 27 -2.9 53 53 W 10 17 29.94 1014 10 16.0934 0 0
11:35 am 11:35 Sunny 44 6.7 26 -3.1 50 50 W 14 22 29.94 1014 10 16.0934 0 0
11:55 am 11:55 Sunny 46 7.8 26 -3.1 46 46 W 15 24 29.94 1014 10 16.0934 0 0
12:15 pm 12:15 Partly Cloudy 46 8 25 -3.7 44 44 W 17 28 29.91 1013 10 16.0934 0 0
12:35 pm 12:35 Mostly Cloudy 47 8.5 26 -3.6 43 43 W 14 22 29.85 1011 10 16.0934 0 0
12:55 pm 12:55 Cloudy 49 9.4 27 -2.9 42 42 W 20 31 29.83 1010 10 16.0934 0 0
1:15 pm 13:15 Mostly Cloudy 51 10.7 25 -3.8 36 36 W 21 33 29.8 1009 10 16.0934 0 0
1:35 pm 13:35 Partly Cloudy 53 11.7 24 -4.6 32 32 W 18 30 29.77 1008 10 16.0934 0 0
1:55 pm 13:55 Sunny 52 11.2 23 -4.8 33 33 W 22 35 29.77 1008 10 16.0934 0 0
2:15 pm 14:15 Sunny 55 12.5 24 -4.7 30 30 W 21 33 29.77 1008 10 16.0934 0 0
2:35 pm 14:35 Sunny 55 13 23 -4.8 29 29 W 21 33 29.77 1008 10 16.0934 0 0
2:55 pm 14:55 Partly Cloudy 56 13.2 23 -5 28 28 W 22 35 29.77 1008 10 16.0934 0 0
3:15 pm 15:15 Cloudy 54 12.2 23 -5.1 30 30 W 17 28 29.77 1008 10 16.0934 0 0
3:35 pm 15:35 Mostly Cloudy 54 12.1 23 -5 30 30 W 15 24 29.77 1008 10 16.0934 0 0
3:55 pm 15:55 Mostly Cloudy 54 12.1 23 -4.9 30 30 W 14 22 29.77 1008 10 16.0934 0 0
4:15 pm 16:15 Mostly Cloudy 53 11.5 23 -5 31 31 W 13 20 29.77 1008 10 16.0934 0 0
4:35 pm 16:35 Mostly Cloudy 52 11 24 -4.6 33 33 W 14 22 29.77 1008 10 16.0934 0 0
4:55 pm 16:55 Cloudy 51 10.3 24 -4.3 36 36 W 14 22 29.8 1009 10 16.0934 0 0
5:15 pm 17:15 Cloudy 50 10 25 -3.8 38 38 W 14 22 29.8 1009 10 16.0934 0 0
5:35 pm 17:35 Partly Cloudy 49 9.4 26 -3.6 40 40 W 13 20 29.8 1009 10 16.0934 0 0
5:55 pm 17:55 Partly Cloudy 48 8.8 26 -3.4 42 42 W 14 22 29.8 1009 10 16.0934 0 0
6:15 pm 18:15 Mostly Cloudy 47 8.3 27 -2.8 46 46 W 14 22 29.8 1009 10 16.0934 0 0
6:35 pm 18:35 Mostly Cloudy 47 8.1 27 -2.6 47 47 W 16 26 29.8 1009 10 16.0934 0 0
6:55 pm 18:55 Cloudy 47 8.1 28 -2.2 49 49 W 16 26 29.8 1009 10 16.0934 0 0
7:15 pm 19:15 Mostly Cloudy 48 8.9 29 -1.6 48 48 WNW 18 30 29.8 1009 10 16.0934 0 0
7:35 pm 19:35 Cloudy 48 9.1 31 -0.6 51 51 W 18 30 29.8 1009 10 16.0934 0 0
7:55 pm 19:55 Mostly Cloudy 49 9.3 34 0.9 56 56 WNW 21 33 29.8 1009 10 16.0934 0 0
8:15 pm 20:15 Clear 48 9.1 36 2 61 61 WNW 16 26 29.8 1009 10 16.0934 0 0
8:35 pm 20:35 Partly Cloudy 47 8.6 36 2 64 64 WNW 17 28 29.8 1009 10 16.0934 0 0
8:55 pm 20:55 Partly Cloudy 47 8.4 34 1.3 61 61 NW 23 37 29.8 1009 10 16.0934 0 0
9:15 pm 21:15 Clear 47 8.2 35 1.5 63 63 NW 25 41 29.8 1009 10 16.0934 0 0
9:35 pm 21:35 Clear 46 7.6 35 1.5 66 66 NW 21 33 29.8 1009 10 16.0934 0 0
9:55 pm 21:55 Clear 46 7.5 35 1.8 67 67 NW 24 39 29.8 1009 10 16.0934 0 0
10:15 pm 22:15 Clear 45 7.4 33 0.7 63 63 NW 23 37 29.83 1010 10 16.0934 0 0
10:35 pm 22:35 Clear 44 6.5 34 0.9 68 68 NW 23 37 29.83 1010 10 16.0934 0 0
10:55 pm 22:55 Clear 43 5.9 32 0 66 66 NW 23 37 29.83 1010 10 16.0934 0 0
11:15 pm 23:15 Clear 42 5.8 32 -0.2 66 66 NW 22 35 29.85 1011 10 16.0934 0 0
11:35 pm 23:35 Mostly Cloudy 44 6.5 31 -0.5 61 61 NW 22 35 29.85 1011 10 16.0934 0 0
11:55 pm 23:55 Cloudy 43 6.3 31 -0.8 61 61 NW 24 39 29.85 1011 10 16.0934 0 0

Powered by AerisWeather